Wind_Speed
19 10 15 10 8 13 7 3 1 5 6 8 11 13 20 25 18 23 26 25 28 26 32 38 36 41 43 42 41 42 44 43
21 9 21 11 8 3 1 14 16 5 5 10 7 12 11 22 26 26 29 30 27 24 29 38 41 42 43 45 47 46 45 43
5 14 18 10 11 3 5 8 11 4 16 8 11 9 9 18 27 28 28 28 23 23 32 40 40 38 40 40 42 41 42 41
26 11 14 20 13 11 8 8 8 17 24 5 9 9 11 16 21 25 23 21 21 22 23 29 35 36 40 39 41 42 42 41
8 9 8 8 14 19 6 4 16 9 6 6 7 6 9 8 8 5 6 8 13 17 19 20 33 36 38 39 42 41 40 39
19 16 6 6 16 16 19 14 13 21 8 5 4 4 7 11 10 15 14 10 16 18 21 21 34 37 38 39 42 41 41 40
15 16 21 14 11 21 23 23 22 21 10 10 10 9 10 10 9 10 11 11 15 14 15 18 28 35 36 38 40 43 42 41
7 13 24 24 21 22 22 23 20 7 7 10 13 8 8 10 10 10 16 15 17 23 26 23 26 34 38 38 40 41 41 43
6 6 20 20 30 15 13 11 15 14 9 10 8 10 10 9 9 9 9 10 17 19 20 21 31 37 36 40 38 41 42 38
6 8 20 13 19 20 9 7 10 12 13 12 15 14 10 8 10 10 10 7 9 14 20 29 38 36 40 37 39 40 40 38
4 4 6 4 6 13 9 12 8 9 8 8 6 7 5 2 1 5 8 9 9 17 21 29 27 32 33 33 37 36 36 38
6 4 6 5 4 11 7 2 3 9 9 8 7 5 4 5 3 3 2 2 5 20 25 23 26 33 31 33 36 37 41 43
12 8 9 4 4 3 9 7 3 4 6 7 6 5 3 3 4 2 2 6 7 16 16 29 34 29 28 32 33 45 46 41
2 6 7 25 18 8 7 3 8 5 3 10 9 7 7 6 4 2 6 7 8 6 11 22 33 35 30 28 41 41 34 33
6 5 11 19 9 8 7 9 4 7 5 10 8 6 6 5 7 6 7 7 13 7 11 21 26 30 27 39 37 34 34 33
5 2 12 19 19 13 11 12 9 9 10 7 11 6 7 7 7 7 7 7 9 10 6 8 22 31 33 36 39 36 33 32
2 5 11 12 17 9 9 13 15 13 13 9 9 8 6 7 7 6 6 7 11 7 9 16 18 24 28 27 32 32 30 27
3 4 3 5 13 10 12 13 11 12 14 12 11 9 6 9 6 7 8 9 7 12 13 15 25 34 19 36 38 32 27 32
6 4 3 3 17 18 16 16 14 13 10 10 10 9 9 6 7 8 11 12 11 13 17 16 11 30 42 26 36 36 31 25
Wind_Direction
218 207 194 229 190 202 194 201 304 230 256 276 227 226 214 213 200 194 197 199 203 199 200 197 192 189 189 189 193 194 197 201
238 216 239 196 176 223 240 222 238 255 238 231 213 233 214 205 203 195 196 204 204 195 197 198 195 191 190 190 192 194 197 200
200 221 219 208 209 214 191 201 229 240 251 191 232 231 210 214 199 196 195 203 202 199 196 195 194 189 190 191 193 193 195 197
231 214 209 224 214 186 211 233 236 229 245 128 204 240 235 202 206 203 199 192 199 194 193 190 190 188 189 189 193 195 194 195
291 276 235 206 224 216 129 128 221 210 260 201 206 289 174 182 180 161 223 189 199 189 187 188 190 190 189 189 193 195 193 193
235 224 182 192 217 212 211 217 222 231 217 277 276 256 271 272 222 197 175 195 185 187 190 189 191 191 191 193 191 191 193 194
273 265 210 201 195 214 216 218 210 231 199 220 241 237 240 255 266 177 159 170 173 186 200 193 188 193 193 194 190 190 192 194
282 255 229 217 220 226 219 219 227 195 209 185 220 221 239 223 225 246 186 187 184 191 191 190 188 189 192 192 192 191 195 198
277 283 215 231 218 203 213 213 209 211 196 194 203 199 214 243 184 214 245 199 191 194 186 191 187 190 191 192 189 191 198 200
276 305 208 217 211 220 192 217 211 224 209 197 208 217 199 196 188 189 160 188 185 194 189 194 191 190 194 190 189 193 198 198
257 268 266 186 175 179 170 240 204 196 213 217 168 83 30 329 150 226 220 181 167 186 200 190 186 193 189 188 193 195 197 200
263 310 254 210 175 135 124 226 310 146 149 147 137 116 232 246 185 101 18 308 224 176 178 193 206 189 186 191 191 196 200 203
253 259 275 298 207 129 122 216 86 86 127 130 106 166 190 257 287 275 253 292 219 226 182 187 196 186 190 193 197 204 206 206
280 262 259 343 316 157 169 112 129 108 127 100 105 92 84 73 65 82 253 273 281 200 222 225 191 185 192 197 205 208 204 199
156 241 319 307 306 11 93 114 68 95 71 116 99 69 46 49 60 49 40 9 343 255 244 238 205 196 190 204 201 197 192 191
55 106 346 358 350 358 42 74 77 83 84 83 106 91 80 59 36 39 36 36 18 10 304 220 220 205 208 202 189 178 175 180
346 350 311 342 352 330 23 59 61 54 64 60 85 63 72 70 40 31 32 29 27 24 17 5 336 180 183 174 171 157 148 153
99 285 277 339 357 18 40 46 41 62 56 40 53 60 44 50 33 35 31 17 15 19 8 16 15 350 161 150 147 140 138 137
109 202 199 115 47 37 47 40 48 51 45 55 30 42 45 38 18 38 41 40 34 44 35 25 351 356 281 121 132 138 136 127
Height
676 677 687 711 729 713 751 748 765 740 715 693 681 680 674 676 680 683 686 689 688 695 702 708 716 722 728 738 747 753 759 765
671 671 672 691 693 729 745 759 764 743 729 712 693 685 677 672 671 670 672 674 674 682 691 699 704 712 722 727 734 742 750 756
674 681 687 689 699 705 708 722 740 764 711 680 681 677 676 663 652 655 657 660 667 672 680 686 696 708 714 723 731 737 743 750
675 656 650 662 679 695 711 732 719 703 678 650 660 662 659 653 648 643 642 653 659 663 674 683 690 699 705 714 723 728 735 742
688 672 661 668 660 661 695 703 703 724 697 654 657 656 649 649 648 651 654 654 656 659 670 675 683 690 697 705 711 722 730 736
667 657 653 668 654 656 665 683 689 674 684 664 661 657 658 652 641 638 644 649 649 656 661 666 673 680 688 696 703 712 721 727
659 648 633 639 646 646 656 650 665 656 680 670 660 657 649 641 646 637 640 648 645 654 658 660 666 674 681 688 695 701 710 716
664 636 627 632 631 628 631 637 643 651 660 642 635 639 638 636 633 639 624 623 638 636 639 649 657 663 670 679 685 695 702 704
688 639 626 646 609 623 626 625 632 653 645 635 636 633 632 628 633 634 631 624 628 628 632 640 646 652 661 667 676 685 692 699
692 664 659 599 587 596 621 618 618 620 621 621 618 616 617 616 622 620 619 620 624 622 624 630 633 643 649 659 668 675 682 689
694 676 629 600 596 602 620 622 610 615 612 610 609 617 622 610 609 609 608 607 608 614 620 623 631 637 646 654 661 668 674 679
677 681 661 608 582 576 595 639 602 603 609 609 612 645 637 612 604 603 602 602 605 607 613 620 624 628 638 644 650 654 659 662
677 675 648 600 581 572 628 639 600 602 604 605 618 621 612 606 604 599 599 599 603 606 609 608 614 626 631 636 641 640 645 653
671 675 648 611 601 603 598 599 598 600 602 606 611 611 611 609 605 603 603 599 598 602 605 604 606 614 617 626 625 632 642 649
669 665 648 630 622 595 585 594 602 604 605 604 610 613 610 612 611 610 607 606 603 600 596 596 603 602 606 608 615 625 634 641
652 655 651 643 631 618 604 604 607 607 609 612 615 616 617 614 611 610 610 608 606 602 601 593 589 593 596 597 603 612 620 630
656 655 653 647 640 630 620 613 615 617 614 620 619 623 622 619 618 615 612 612 609 607 608 607 604 587 589 593 601 604 613 627
658 665 666 657 645 632 628 626 626 623 625 629 626 627 626 625 625 621 618 615 612 614 616 611 612 618 593 584 593 605 613 617
651 662 662 654 645 641 639 638 635 634 635 635 634 632 630 633 631 625 622 618 618 617 617 615 611 605 625 585 587 599 610 620